TimeCDT,TemperatureF,Dew PointF,Humidity,Sea Level PressureIn,VisibilityMPH,Wind Direction,Wind SpeedMPH,Gust SpeedMPH,PrecipitationIn,Events,Conditions,WindDirDegrees,DateUTC
12:15 AM,43.0,36.9,79,29.98,10.0,Calm,Calm,-,N/A,,Overcast,0,2012-11-01 05:15:00
12:35 AM,43.2,38.1,82,29.98,10.0,Calm,Calm,-,N/A,,Overcast,0,2012-11-01 05:35:00
12:55 AM,43.9,38.5,81,29.98,10.0,Calm,Calm,-,N/A,,Overcast,0,2012-11-01 05:55:00
1:15 AM,44.2,37.4,77,29.97,10.0,Calm,Calm,-,N/A,,Overcast,0,2012-11-01 06:15:00
1:35 AM,44.6,37.6,76,29.97,10.0,Calm,Calm,-,N/A,,Overcast,0,2012-11-01 06:35:00
1:55 AM,45.0,37.4,75,29.97,10.0,Calm,Calm,-,N/A,,Overcast,0,2012-11-01 06:55:00
2:15 AM,45.5,37.4,73,29.97,10.0,Calm,Calm,-,N/A,,Overcast,0,2012-11-01 07:15:00
2:35 AM,44.8,38.3,78,29.97,10.0,Calm,Calm,-,N/A,,Mostly Cloudy,0,2012-11-01 07:35:00
2:55 AM,44.8,37.4,75,29.97,10.0,Calm,Calm,-,N/A,,Overcast,0,2012-11-01 07:55:00
3:15 AM,43.9,39.4,84,29.97,10.0,Calm,Calm,-,N/A,,Mostly Cloudy,0,2012-11-01 08:15:00
3:35 AM,42.8,39.4,88,29.96,10.0,Calm,Calm,-,N/A,,Scattered Clouds,0,2012-11-01 08:35:00
3:55 AM,42.1,38.1,86,29.96,10.0,Calm,Calm,-,N/A,,Clear,0,2012-11-01 08:55:00
4:15 AM,40.6,38.3,91,29.95,10.0,Calm,Calm,-,N/A,,Clear,0,2012-11-01 09:15:00
4:35 AM,40.5,37.9,91,29.95,10.0,Calm,Calm,-,N/A,,Clear,0,2012-11-01 09:35:00
4:55 AM,39.7,37.8,93,29.95,10.0,Calm,Calm,-,N/A,,Clear,0,2012-11-01 09:55:00
5:15 AM,39.2,37.4,93,29.95,10.0,Calm,Calm,-,N/A,,Clear,0,2012-11-01 10:15:00
5:35 AM,39.2,37.0,92,29.95,10.0,Calm,Calm,-,N/A,,Clear,0,2012-11-01 10:35:00
5:55 AM,39.2,37.4,93,29.95,10.0,Calm,Calm,-,N/A,,Clear,0,2012-11-01 10:55:00
6:15 AM,38.7,36.9,93,29.95,10.0,Calm,Calm,-,N/A,,Clear,0,2012-11-01 11:15:00
6:35 AM,38.1,36.5,94,29.94,7.0,Calm,Calm,-,N/A,,Clear,0,2012-11-01 11:35:00
7:15 AM,37.6,36.1,95,29.93,7.0,Calm,Calm,-,N/A,,Clear,0,2012-11-01 12:15:00
7:35 AM,37.9,36.5,95,29.94,7.0,Calm,Calm,-,N/A,,Clear,0,2012-11-01 12:35:00
7:55 AM,37.8,36.0,93,29.94,10.0,Calm,Calm,-,N/A,,Clear,0,2012-11-01 12:55:00
8:35 AM,38.3,36.1,92,29.96,7.0,WNW,4.6,-,N/A,,Clear,300,2012-11-01 13:35:00
8:55 AM,40.8,38.1,90,29.96,10.0,Calm,Calm,-,N/A,,Clear,0,2012-11-01 13:55:00
9:15 AM,44.1,39.4,84,29.96,10.0,Calm,Calm,-,N/A,,Clear,0,2012-11-01 14:15:00
9:35 AM,46.4,38.7,74,29.97,10.0,North,3.5,-,N/A,,Clear,350,2012-11-01 14:35:00
9:55 AM,47.3,37.9,70,29.98,10.0,NNW,5.8,-,N/A,,Clear,340,2012-11-01 14:55:00
10:15 AM,48.7,38.1,67,29.98,10.0,NNW,5.8,-,N/A,,Clear,340,2012-11-01 15:15:00
10:35 AM,50.0,38.5,65,29.99,10.0,North,4.6,-,N/A,,Clear,360,2012-11-01 15:35:00
10:55 AM,51.8,38.1,60,29.99,10.0,North,4.6,-,N/A,,Clear,360,2012-11-01 15:55:00
11:15 AM,53.2,37.9,56,29.99,10.0,North,6.9,-,N/A,,Clear,360,2012-11-01 16:15:00
11:35 AM,54.1,38.3,55,30.00,10.0,North,4.6,-,N/A,,Clear,10,2012-11-01 16:35:00
11:55 AM,54.7,39.0,56,30.01,10.0,North,8.1,-,N/A,,Clear,10,2012-11-01 16:55:00
12:15 PM,54.3,39.4,57,30.01,10.0,North,5.8,-,N/A,,Clear,350,2012-11-01 17:15:00
12:35 PM,54.5,39.9,58,30.01,10.0,North,8.1,-,N/A,,Clear,360,2012-11-01 17:35:00
12:55 PM,54.1,40.3,59,30.00,10.0,NNW,9.2,-,N/A,,Clear,340,2012-11-01 17:55:00
1:15 PM,54.0,40.5,60,30.00,10.0,NNW,9.2,-,N/A,,Clear,330,2012-11-01 18:15:00
1:35 PM,53.4,41.0,63,30.00,10.0,NNW,11.5,-,N/A,,Clear,330,2012-11-01 18:35:00
1:55 PM,52.7,41.0,64,29.99,10.0,NW,10.4,-,N/A,,Clear,320,2012-11-01 18:55:00
2:15 PM,53.1,41.4,64,29.98,10.0,NNW,6.9,-,N/A,,Clear,340,2012-11-01 19:15:00
2:35 PM,53.8,41.7,64,29.98,10.0,North,8.1,-,N/A,,Clear,360,2012-11-01 19:35:00
3:15 PM,53.8,42.1,65,29.97,10.0,North,9.2,-,N/A,,Clear,350,2012-11-01 20:15:00
3:35 PM,53.6,41.9,65,29.98,10.0,North,5.8,-,N/A,,Clear,350,2012-11-01 20:35:00
3:55 PM,53.2,41.7,65,29.97,10.0,NNW,6.9,-,N/A,,Clear,340,2012-11-01 20:55:00
4:15 PM,52.9,42.1,67,29.98,10.0,NNW,5.8,-,N/A,,Clear,330,2012-11-01 21:15:00
4:35 PM,51.8,41.4,68,29.97,10.0,North,4.6,-,N/A,,Clear,350,2012-11-01 21:35:00
4:55 PM,51.8,41.2,67,29.97,10.0,NNW,6.9,-,N/A,,Clear,340,2012-11-01 21:55:00
5:15 PM,50.9,41.2,69,29.97,10.0,NNW,3.5,-,N/A,,Clear,340,2012-11-01 22:15:00
5:35 PM,49.8,41.0,72,29.98,10.0,North,5.8,-,N/A,,Clear,350,2012-11-01 22:35:00
5:55 PM,48.4,40.5,74,29.98,10.0,NNW,4.6,-,N/A,,Clear,340,2012-11-01 22:55:00
6:15 PM,47.7,40.3,76,29.98,10.0,NNW,5.8,-,N/A,,Clear,340,2012-11-01 23:15:00
6:35 PM,47.3,40.1,76,29.98,10.0,North,4.6,-,N/A,,Clear,350,2012-11-01 23:35:00
6:55 PM,46.4,39.9,78,29.98,10.0,North,3.5,-,N/A,,Clear,360,2012-11-01 23:55:00
7:15 PM,45.9,39.6,79,29.98,10.0,Calm,Calm,-,N/A,,Clear,0,2012-11-02 00:15:00
7:35 PM,45.7,39.6,79,29.98,10.0,North,4.6,-,N/A,,Clear,350,2012-11-02 00:35:00
7:55 PM,45.5,39.2,79,29.98,10.0,North,3.5,-,N/A,,Clear,350,2012-11-02 00:55:00
8:15 PM,45.0,39.2,80,29.98,10.0,Calm,Calm,-,N/A,,Clear,0,2012-11-02 01:15:00
8:35 PM,44.2,39.2,82,29.98,10.0,Calm,Calm,-,N/A,,Clear,0,2012-11-02 01:35:00
8:55 PM,43.5,38.8,84,29.98,10.0,Calm,Calm,-,N/A,,Clear,0,2012-11-02 01:55:00
9:15 PM,44.1,39.0,82,29.98,10.0,Calm,Calm,-,N/A,,Clear,0,2012-11-02 02:15:00
9:35 PM,43.2,38.5,84,29.99,10.0,Calm,Calm,-,N/A,,Clear,0,2012-11-02 02:35:00
9:55 PM,42.8,38.1,84,29.99,7.0,Calm,Calm,-,N/A,,Clear,0,2012-11-02 02:55:00
10:15 PM,41.5,37.8,86,29.99,7.0,Calm,Calm,-,N/A,,Clear,0,2012-11-02 03:15:00
10:35 PM,40.5,37.9,91,29.99,7.0,Calm,Calm,-,N/A,,Clear,0,2012-11-02 03:35:00
10:55 PM,39.4,37.9,95,29.98,5.0,Calm,Calm,-,N/A,,Clear,0,2012-11-02 03:55:00
11:15 PM,39.2,37.9,95,29.99,5.0,Calm,Calm,-,N/A,,Clear,0,2012-11-02 04:15:00
11:35 PM,39.4,37.8,94,29.99,5.0,Calm,Calm,-,N/A,,Clear,0,2012-11-02 04:35:00
11:55 PM,38.8,37.8,96,29.99,4.0,Calm,Calm,-,N/A,,Clear,0,2012-11-02 04:55:00